| time (UTC) | temp F | wind direction | speed MPH | gust MPH | rain 1hr in | rain 24hr in | rain mn in | humidity % | barometer mb |
| 20260905213813 | 80 | 340 | 4.0 | 4.0 | 0.00 | 0.00 | 0.00 | 75 | 1014.3 |
| 20260905213314 | 80 | 24 | 1.0 | 6.0 | 0.00 | 0.00 | 0.00 | 76 | 1014.3 |
| 20260905212812 | 80 | 72 | 4.0 | 6.0 | 0.00 | 0.00 | 0.00 | 76 | 1014.3 |
| 20260905212310 | 80 | 299 | 0.0 | 5.0 | 0.00 | 0.00 | 0.00 | 76 | 1014.0 |
| 20260905211812 | 80 | 25 | 2.0 | 5.0 | 0.00 | 0.00 | 0.00 | 76 | 1014.3 |
| 20260905211311 | 80 | 7 | 3.0 | 5.0 | 0.00 | 0.00 | 0.00 | 77 | 1014.0 |
| 20260905210810 | 80 | 18 | 1.0 | 6.0 | 0.00 | 0.00 | 0.00 | 77 | 1014.3 |
| 20260905210534 | 80 | 352 | 2.0 | 6.0 | 0.00 | 0.00 | 0.00 | 77 | 1014.3 |
| 20260905205808 | 80 | 3 | 2.0 | 7.0 | 0.00 | 0.00 | 0.00 | 78 | 1014.3 |
| 20260905205309 | 80 | 81 | 2.0 | 7.0 | 0.00 | 0.00 | 0.00 | 77 | 1014.3 |
| 20260905205026 | 80 | 62 | 6.0 | 6.0 | 0.00 | 0.00 | 0.00 | 79 | 1014.3 |
| 20260905204309 | 79 | 247 | 1.0 | 5.0 | 0.00 | 0.00 | 0.00 | 81 | 1014.3 |
| 20260905203806 | 79 | 20 | 4.0 | 5.0 | 0.00 | 0.00 | 0.00 | 81 | 1014.3 |
| 20260905203308 | 79 | 96 | 3.0 | 7.0 | 0.00 | 0.00 | 0.00 | 81 | 1014.7 |
| 20260905202806 | 79 | 318 | 3.0 | 7.0 | 0.00 | 0.00 | 0.00 | 81 | 1014.7 |
| 20260905202306 | 78 | 14 | 0.0 | 4.0 | 0.00 | 0.00 | 0.00 | 82 | 1014.7 |
| 20260905201819 | 78 | 18 | 1.0 | 4.0 | 0.00 | 0.00 | 0.00 | 83 | 1014.3 |
| 20260905201305 | 78 | 59 | 4.0 | 6.0 | 0.00 | 0.00 | 0.00 | 84 | 1014.7 |
| 20260905200803 | 77 | 105 | 2.0 | 6.0 | 0.00 | 0.00 | 0.00 | 83 | 1014.7 |
| 20260905200520 | 78 | 12 | 3.0 | 6.0 | 0.00 | 0.00 | 0.00 | 83 | 1014.7 |
| 20260905195804 | 78 | 25 | 6.0 | 6.0 | 0.00 | 0.00 | 0.00 | 85 | 1014.7 |
| 20260905195306 | 77 | 68 | 2.0 | 6.0 | 0.00 | 0.00 | 0.00 | 85 | 1014.7 |
| 20260905195020 | 77 | 12 | 2.0 | 6.0 | 0.00 | 0.00 | 0.00 | 85 | 1014.7 |
| 20260905194301 | 77 | 56 | 4.0 | 6.0 | 0.00 | 0.00 | 0.00 | 85 | 1014.7 |
| 20260905193801 | 77 | 51 | 1.0 | 5.0 | 0.00 | 0.00 | 0.00 | 85 | 1014.7 |
| 20260905193300 | 77 | 30 | 1.0 | 8.0 | 0.00 | 0.00 | 0.00 | 85 | 1014.7 |
| 20260905192800 | 77 | 341 | 3.0 | 8.0 | 0.00 | 0.00 | 0.00 | 85 | 1015.0 |
| 20260905192300 | 77 | 10 | 3.0 | 6.0 | 0.00 | 0.00 | 0.00 | 85 | 1015.0 |
| 20260905191759 | 77 | 61 | 4.0 | 6.0 | 0.00 | 0.00 | 0.00 | 85 | 1015.0 |
| 20260905191300 | 77 | 11 | 3.0 | 6.0 | 0.00 | 0.00 | 0.00 | 85 | 1015.0 |
| 20260905190758 | 77 | 36 | 4.0 | 9.0 | 0.00 | 0.00 | 0.00 | 85 | 1015.0 |
| 20260905190259 | 77 | 22 | 4.0 | 9.0 | 0.00 | 0.00 | 0.00 | 85 | 1015.0 |
| 20260905185757 | 77 | 77 | 2.0 | 7.0 | 0.00 | 0.00 | 0.00 | 85 | 1015.0 |
| 20260905185255 | 78 | 77 | 3.0 | 8.0 | 0.00 | 0.00 | 0.00 | 85 | 1015.0 |
| 20260905184756 | 78 | 50 | 2.0 | 8.0 | 0.00 | 0.00 | 0.00 | 84 | 1015.0 |
| 20260905184514 | 78 | 349 | 5.0 | 6.0 | 0.00 | 0.00 | 0.00 | 84 | 1015.0 |
| 20260905183754 | 78 | 85 | 5.0 | 5.0 | 0.00 | 0.00 | 0.00 | 85 | 1015.0 |
| 20260905183253 | 78 | 7 | 2.0 | 10.0 | 0.00 | 0.00 | 0.00 | 85 | 1015.0 |
| 20260905182754 | 78 | 358 | 9.0 | 10.0 | 0.00 | 0.00 | 0.00 | 85 | 1015.0 |
| 20260905182254 | 78 | 354 | 3.0 | 6.0 | 0.00 | 0.00 | 0.00 | 85 | 1015.0 |
| 20260905181755 | 78 | 41 | 4.0 | 6.0 | 0.00 | 0.00 | 0.00 | 84 | 1015.0 |
| 20260905181513 | 78 | 33 | 4.0 | 8.0 | 0.00 | 0.00 | 0.00 | 84 | 1015.0 |
| 20260905180751 | 78 | 357 | 3.0 | 8.0 | 0.00 | 0.00 | 0.00 | 84 | 1015.0 |
| 20260905180307 | 79 | 4 | 2.0 | 7.0 | 0.00 | 0.00 | 0.00 | 85 | 1015.0 |
| 20260905175751 | 78 | 61 | 3.0 | 7.0 | 0.00 | 0.00 | 0.00 | 84 | 1015.0 |
| 20260905175251 | 79 | 354 | 2.0 | 7.0 | 0.00 | 0.00 | 0.00 | 83 | 1015.0 |
| 20260905174749 | 79 | 75 | 6.0 | 7.0 | 0.00 | 0.00 | 0.00 | 85 | 1014.7 |
| 20260905174518 | 78 | 98 | 2.0 | 8.0 | 0.00 | 0.00 | 0.00 | 85 | 1015.0 |
| 20260905173749 | 79 | 344 | 4.0 | 8.0 | 0.00 | 0.00 | 0.00 | 84 | 1014.7 |
| 20260905173249 | 79 | 79 | 1.0 | 5.0 | 0.00 | 0.00 | 0.00 | 84 | 1014.7 |
| 20260905172747 | 79 | 19 | 3.0 | 6.0 | 0.00 | 0.00 | 0.00 | 83 | 1014.7 |
| 20260905172246 | 80 | 65 | 2.0 | 7.0 | 0.00 | 0.00 | 0.00 | 82 | 1014.7 |
| 20260905171747 | 80 | 80 | 2.0 | 7.0 | 0.00 | 0.00 | 0.00 | 83 | 1014.7 |
| 20260905171246 | 79 | 35 | 2.0 | 7.0 | 0.00 | 0.00 | 0.00 | 84 | 1014.7 |
| 20260905170745 | 80 | 75 | 5.0 | 8.0 | 0.00 | 0.00 | 0.00 | 83 | 1014.7 |
| 20260905170246 | 80 | 187 | 0.0 | 8.0 | 0.00 | 0.00 | 0.00 | 83 | 1014.7 |
| 20260905165744 | 80 | 58 | 4.0 | 8.0 | 0.00 | 0.00 | 0.00 | 83 | 1014.7 |
| 20260905165244 | 80 | 67 | 4.0 | 8.0 | 0.00 | 0.00 | 0.00 | 83 | 1014.7 |
| 20260905165223 | 80 | 9 | 4.0 | 10.0 | 0.00 | 0.00 | 0.00 | 84 | 1015.0 |
| 20260905164508 | 80 | 45 | 3.0 | 10.0 | 0.00 | 0.00 | 0.00 | 85 | 1015.0 |
| 20260905164007 | 80 | 142 | 1.0 | 8.0 | 0.00 | 0.00 | 0.00 | 84 | 1015.0 |
| 20260905163242 | 79 | 11 | 3.0 | 6.0 | 0.00 | 0.00 | 0.00 | 87 | 1015.0 |
| 20260905162742 | 78 | 37 | 1.0 | 5.0 | 0.00 | 0.00 | 0.00 | 87 | 1014.7 |
| 20260905162240 | 78 | 88 | 5.0 | 6.0 | 0.00 | 0.00 | 0.00 | 87 | 1015.0 |
| 20260905161740 | 78 | 33 | 3.0 | 6.0 | 0.00 | 0.00 | 0.00 | 87 | 1015.0 |
| 20260905161456 | 77 | 15 | 1.0 | 5.0 | 0.00 | 0.00 | 0.00 | 88 | 1014.7 |
| 20260905160751 | 77 | 129 | 2.0 | 4.0 | 0.00 | 0.00 | 0.00 | 90 | 1015.0 |
| 20260905160253 | 76 | 56 | 3.0 | 5.0 | 0.00 | 0.00 | 0.00 | 89 | 1015.0 |
| 20260905155737 | 76 | 2 | 2.0 | 5.0 | 0.00 | 0.00 | 0.00 | 90 | 1015.0 |
| 20260905155239 | 76 | 347 | 4.0 | 6.0 | 0.00 | 0.00 | 0.00 | 90 | 1015.0 |
| 20260905155005 | 76 | 87 | 3.0 | 6.0 | 0.00 | 0.00 | 0.00 | 91 | 1015.0 |
| 20260905154237 | 76 | 62 | 3.0 | 5.0 | 0.00 | 0.00 | 0.00 | 91 | 1015.0 |
| 20260905153958 | 76 | 63 | 4.0 | 6.0 | 0.00 | 0.00 | 0.00 | 91 | 1014.7 |
| 20260905153235 | 75 | 105 | 2.0 | 7.0 | 0.00 | 0.00 | 0.00 | 91 | 1014.7 |
| 20260905152736 | 75 | 22 | 2.0 | 7.0 | 0.00 | 0.00 | 0.00 | 91 | 1014.7 |
| 20260905152456 | 76 | 359 | 3.0 | 4.0 | 0.00 | 0.00 | 0.00 | 90 | 1014.7 |
| 20260905151735 | 76 | 71 | 3.0 | 5.0 | 0.00 | 0.00 | 0.00 | 93 | 1014.3 |
| 20260905151234 | 75 | 31 | 2.0 | 9.0 | 0.00 | 0.00 | 0.00 | 92 | 1014.3 |
| 20260905150734 | 75 | 72 | 3.0 | 9.0 | 0.00 | 0.00 | 0.00 | 93 | 1014.3 |
| 20260905150502 | 74 | 81 | 2.0 | 7.0 | 0.00 | 0.00 | 0.00 | 94 | 1014.3 |
| 20260905145733 | 74 | 30 | 2.0 | 6.0 | 0.00 | 0.00 | 0.00 | 94 | 1014.3 |
| 20260905145231 | 74 | 125 | 2.0 | 6.0 | 0.00 | 0.00 | 0.00 | 95 | 1014.3 |
| 20260905144731 | 74 | 9 | 0.0 | 8.0 | 0.00 | 0.00 | 0.00 | 96 | 1014.3 |
| 20260905144230 | 73 | 70 | 6.0 | 8.0 | 0.00 | 0.00 | 0.00 | 96 | 1014.3 |
| 20260905143730 | 73 | 62 | 2.0 | 7.0 | 0.00 | 0.00 | 0.00 | 96 | 1014.3 |
| 20260905143230 | 73 | 1 | 2.0 | 7.0 | 0.00 | 0.00 | 0.00 | 97 | 1014.3 |
| 20260905142728 | 73 | 70 | 3.0 | 6.0 | 0.00 | 0.00 | 0.00 | 97 | 1014.0 |
| 20260905142229 | 73 | 79 | 3.0 | 6.0 | 0.00 | 0.00 | 0.00 | 97 | 1014.0 |
| 20260905141730 | 72 | 27 | 4.0 | 9.0 | 0.00 | 0.00 | 0.00 | 97 | 1014.3 |
| 20260905141227 | 72 | 57 | 3.0 | 9.0 | 0.00 | 0.00 | 0.00 | 97 | 1014.3 |
| 20260905140728 | 72 | 13 | 3.0 | 9.0 | 0.00 | 0.00 | 0.00 | 98 | 1014.3 |
| 20260905140225 | 72 | 75 | 6.0 | 9.0 | 0.00 | 0.00 | 0.00 | 98 | 1014.0 |
| 20260905135727 | 72 | 61 | 5.0 | 9.0 | 0.00 | 0.00 | 0.00 | 98 | 1014.0 |
| 20260905135226 | 72 | 104 | 3.0 | 9.0 | 0.00 | 0.00 | 0.00 | 98 | 1014.0 |
| 20260905134725 | 72 | 16 | 1.0 | 9.0 | 0.00 | 0.00 | 0.00 | 98 | 1014.3 |
| 20260905134225 | 72 | 84 | 4.0 | 6.0 | 0.00 | 0.00 | 0.00 | 98 | 1014.0 |
| 20260905133725 | 72 | 59 | 4.0 | 10.0 | 0.00 | 0.00 | 0.00 | 98 | 1014.0 |
| 20260905133224 | 72 | 84 | 4.0 | 10.0 | 0.00 | 0.00 | 0.00 | 98 | 1014.0 |
| 20260905132735 | 72 | 343 | 5.0 | 6.0 | 0.00 | 0.00 | 0.00 | 98 | 1014.3 |
| 20260905132224 | 73 | 65 | 3.0 | 6.0 | 0.00 | 0.00 | 0.00 | 98 | 1014.0 |
| 20260905131722 | 73 | 78 | 3.0 | 6.0 | 0.00 | 0.00 | 0.00 | 98 | 1014.3 |
| 20260905131220 | 73 | 78 | 3.0 | 5.0 | 0.00 | 0.00 | 0.00 | 98 | 1014.3 |
| 20260905130723 | 73 | 56 | 2.0 | 4.0 | 0.00 | 0.00 | 0.00 | 98 | 1014.3 |
| 20260905130221 | 73 | 64 | 2.0 | 4.0 | 0.00 | 0.00 | 0.00 | 98 | 1014.3 |
| 20260905125719 | 73 | 54 | 3.0 | 4.0 | 0.00 | 0.00 | 0.00 | 98 | 1014.0 |
| 20260905125220 | 73 | 65 | 2.0 | 6.0 | 0.00 | 0.00 | 0.00 | 98 | 1013.7 |
| 20260905124718 | 73 | 58 | 2.0 | 4.0 | 0.00 | 0.00 | 0.00 | 98 | 1013.7 |
| 20260905124220 | 73 | 22 | 1.0 | 4.0 | 0.00 | 0.00 | 0.00 | 98 | 1013.3 |
| 20260905123937 | 73 | 63 | 2.0 | 4.0 | 0.00 | 0.00 | 0.00 | 98 | 1013.7 |
| 20260905123218 | 73 | 111 | 2.0 | 4.0 | 0.00 | 0.00 | 0.00 | 98 | 1013.3 |
| 20260905122718 | 73 | 40 | 2.0 | 4.0 | 0.00 | 0.00 | 0.00 | 98 | 1013.3 |
| 20260905122217 | 73 | 38 | 0.0 | 2.0 | 0.00 | 0.00 | 0.00 | 98 | 1012.9 |
| 20260905121717 | 73 | 80 | 2.0 | 2.0 | 0.00 | 0.00 | 0.00 | 98 | 1012.9 |
| 20260905121214 | 73 | 124 | 1.0 | 4.0 | 0.00 | 0.00 | 0.00 | 98 | 1013.3 |
| 20260905120715 | 73 | 89 | 0.0 | 4.0 | 0.00 | 0.00 | 0.00 | 98 | 1012.9 |
| 20260905120448 | 73 | 96 | 2.0 | 3.0 | 0.00 | 0.00 | 0.00 | 98 | 1012.9 |
| 20260905115930 | 73 | 97 | 1.0 | 3.0 | 0.00 | 0.00 | 0.00 | 98 | 1012.9 |
| 20260905115215 | 73 | 343 | 0.0 | 3.0 | 0.00 | 0.00 | 0.00 | 98 | 1012.9 |
| 20260905114714 | 73 | 89 | 0.0 | 4.0 | 0.00 | 0.00 | 0.00 | 98 | 1012.9 |
| 20260905114212 | 73 | 25 | 0.0 | 4.0 | 0.00 | 0.00 | 0.00 | 98 | 1012.9 |
| 20260905113713 | 73 | 57 | 1.0 | 3.0 | 0.00 | 0.00 | 0.00 | 98 | 1012.5 |
| 20260905113212 | 73 | 50 | 0.0 | 3.0 | 0.00 | 0.00 | 0.00 | 98 | 1012.5 |
| 20260905112713 | 73 | 32 | 0.0 | 3.0 | 0.00 | 0.00 | 0.00 | 98 | 1012.5 |
| 20260905112436 | 73 | 67 | 2.0 | 3.0 | 0.00 | 0.00 | 0.00 | 98 | 1012.5 |
| 20260905111710 | 73 | 36 | 2.0 | 2.0 | 0.00 | 0.00 | 0.00 | 98 | 1012.5 |
| 20260905111209 | 73 | 21 | 1.0 | 2.0 | 0.00 | 0.00 | 0.00 | 98 | 1012.5 |
| 20260905110709 | 74 | 293 | 0.0 | 2.0 | 0.00 | 0.00 | 0.00 | 98 | 1012.2 |
| 20260905110208 | 74 | 32 | 0.0 | 2.0 | 0.00 | 0.00 | 0.00 | 98 | 1012.2 |
| 20260905105708 | 74 | 25 | 0.0 | 2.0 | 0.00 | 0.00 | 0.00 | 98 | 1012.2 |
| 20260905105427 | 74 | 29 | 0.0 | 4.0 | 0.00 | 0.00 | 0.00 | 98 | 1012.2 |
| 20260905105157 | 74 | 117 | 0.0 | 4.0 | 0.00 | 0.00 | 0.00 | 98 | 1012.2 |
| 20260905104206 | 74 | 23 | 0.0 | 3.0 | 0.00 | 0.00 | 0.00 | 98 | 1012.2 |
| 20260905103706 | 74 | 28 | 3.0 | 3.0 | 0.00 | 0.00 | 0.00 | 98 | 1012.2 |
| 20260905103205 | 74 | 349 | 2.0 | 2.0 | 0.00 | 0.00 | 0.00 | 98 | 1011.9 |
| 20260905102704 | 75 | 50 | 0.0 | 2.0 | 0.00 | 0.00 | 0.00 | 98 | 1012.2 |
| 20260905102648 | 75 | 341 | 0.0 | 2.0 | 0.00 | 0.00 | 0.00 | 98 | 1012.2 |
| 20260905101703 | 75 | 322 | 0.0 | 2.0 | 0.00 | 0.00 | 0.00 | 98 | 1012.2 |
| 20260905101203 | 75 | 322 | 0.0 | 2.0 | 0.00 | 0.00 | 0.00 | 98 | 1012.2 |
| 20260905100702 | 75 | 321 | 0.0 | 2.0 | 0.00 | 0.00 | 0.00 | 98 | 1012.2 |
| 20260905100645 | 75 | 17 | 0.0 | 2.0 | 0.00 | 0.00 | 0.00 | 98 | 1012.2 |
| 20260905095701 | 75 | 322 | 0.0 | 1.0 | 0.00 | 0.00 | 0.00 | 98 | 1012.5 |
| 20260905095201 | 75 | 242 | 0.0 | 1.0 | 0.00 | 0.00 | 0.00 | 98 | 1012.2 |
| 20260905094700 | 75 | 255 | 0.0 | 1.0 | 0.00 | 0.00 | 0.00 | 98 | 1012.2 |
| 20260905094159 | 75 | 322 | 0.0 | 0.0 | 0.00 | 0.00 | 0.00 | 98 | 1012.2 |
| 20260905093701 | 75 | 322 | 0.0 | 1.0 | 0.00 | 0.00 | 0.00 | 98 | 1011.9 |
| 20260905093159 | 75 | 314 | 0.0 | 1.0 | 0.00 | 0.00 | 0.00 | 98 | 1012.2 |
| 20260905092659 | 75 | 297 | 0.0 | 1.0 | 0.00 | 0.00 | 0.00 | 98 | 1012.2 |
| 20260905092157 | 75 | 0 | 1.0 | 2.0 | 0.00 | 0.00 | 0.00 | 98 | 1011.9 |
| 20260905091658 | 75 | 240 | 0.0 | 2.0 | 0.00 | 0.00 | 0.00 | 98 | 1011.9 |
| 20260905091424 | 75 | 226 | 1.0 | 2.0 | 0.00 | 0.00 | 0.00 | 98 | 1012.2 |
| 20260905090656 | 75 | 240 | 1.0 | 1.0 | 0.00 | 0.00 | 0.00 | 98 | 1012.2 |
| 20260905090156 | 75 | 301 | 0.0 | 2.0 | 0.00 | 0.00 | 0.00 | 98 | 1012.2 |
| 20260905085656 | 75 | 230 | 0.0 | 2.0 | 0.00 | 0.00 | 0.00 | 98 | 1012.2 |
| 20260905085154 | 75 | 287 | 2.0 | 2.0 | 0.00 | 0.00 | 0.00 | 98 | 1012.2 |
| 20260905084655 | 75 | 235 | 0.0 | 2.0 | 0.00 | 0.00 | 0.00 | 98 | 1011.9 |
| 20260905084633 | 75 | 239 | 0.0 | 2.0 | 0.00 | 0.00 | 0.00 | 98 | 1012.2 |
| 20260905083915 | 75 | 269 | 0.0 | 1.0 | 0.00 | 0.00 | 0.00 | 98 | 1011.9 |
| 20260905083154 | 75 | 242 | 0.0 | 1.0 | 0.00 | 0.00 | 0.00 | 98 | 1012.2 |
| 20260905082652 | 75 | 235 | 1.0 | 1.0 | 0.00 | 0.00 | 0.00 | 98 | 1012.2 |
| 20260905082153 | 75 | 309 | 0.0 | 1.0 | 0.00 | 0.00 | 0.00 | 98 | 1012.2 |
| 20260905081653 | 75 | 269 | 0.0 | 2.0 | 0.00 | 0.00 | 0.00 | 97 | 1012.2 |
| 20260905081151 | 75 | 239 | 1.0 | 2.0 | 0.00 | 0.00 | 0.00 | 97 | 1012.2 |
| 20260905080650 | 75 | 238 | 0.0 | 1.0 | 0.00 | 0.00 | 0.00 | 97 | 1011.9 |
| 20260905080149 | 75 | 255 | 0.0 | 2.0 | 0.00 | 0.00 | 0.00 | 97 | 1012.2 |
| 20260905075650 | 75 | 304 | 0.0 | 2.0 | 0.00 | 0.00 | 0.00 | 97 | 1012.2 |
| 20260905075150 | 75 | 309 | 0.0 | 1.0 | 0.00 | 0.00 | 0.00 | 97 | 1011.9 |
| 20260905074909 | 75 | 309 | 0.0 | 1.0 | 0.00 | 0.00 | 0.00 | 97 | 1012.2 |
| 20260905074150 | 75 | 309 | 0.0 | 1.0 | 0.00 | 0.00 | 0.00 | 97 | 1012.2 |
| 20260905073905 | 75 | 242 | 0.0 | 1.0 | 0.00 | 0.00 | 0.00 | 97 | 1012.2 |
| 20260905073146 | 75 | 269 | 0.0 | 1.0 | 0.00 | 0.00 | 0.00 | 97 | 1012.2 |
| 20260905072906 | 75 | 322 | 0.0 | 2.0 | 0.00 | 0.00 | 0.00 | 97 | 1012.2 |
| 20260905072145 | 75 | 237 | 0.0 | 2.0 | 0.00 | 0.00 | 0.00 | 97 | 1012.2 |
| 20260905071648 | 75 | 258 | 0.0 | 2.0 | 0.00 | 0.00 | 0.00 | 97 | 1012.2 |
| 20260905071158 | 75 | 283 | 0.0 | 2.0 | 0.00 | 0.00 | 0.00 | 96 | 1012.5 |
| 20260905070644 | 76 | 259 | 1.0 | 2.0 | 0.00 | 0.00 | 0.00 | 96 | 1012.2 |
| 20260905070143 | 76 | 235 | 1.0 | 1.0 | 0.00 | 0.00 | 0.00 | 96 | 1012.2 |
| 20260905065644 | 76 | 242 | 0.0 | 1.0 | 0.00 | 0.00 | 0.00 | 96 | 1012.5 |
| 20260905065402 | 76 | 205 | 1.0 | 2.0 | 0.00 | 0.00 | 0.00 | 96 | 1012.5 |
| 20260905064643 | 76 | 224 | 0.0 | 2.0 | 0.00 | 0.00 | 0.00 | 96 | 1012.5 |
| 20260905064411 | 76 | 242 | 1.0 | 2.0 | 0.00 | 0.00 | 0.00 | 96 | 1012.5 |
| 20260905063640 | 76 | 345 | 0.0 | 2.0 | 0.00 | 0.00 | 0.00 | 96 | 1012.2 |
| 20260905063406 | 76 | 22 | 0.0 | 2.0 | 0.00 | 0.00 | 0.00 | 96 | 1012.5 |
| 20260905062855 | 76 | 9 | 2.0 | 2.0 | 0.00 | 0.00 | 0.00 | 96 | 1012.5 |
| 20260905062139 | 76 | 315 | 0.0 | 2.0 | 0.00 | 0.00 | 0.00 | 96 | 1012.5 |
| 20260905061640 | 76 | 242 | 0.0 | 2.0 | 0.00 | 0.00 | 0.00 | 96 | 1012.5 |
| 20260905061138 | 76 | 6 | 0.0 | 2.0 | 0.00 | 0.00 | 0.00 | 96 | 1012.5 |
| 20260905060637 | 76 | 235 | 0.0 | 2.0 | 0.00 | 0.00 | 0.00 | 96 | 1012.5 |
| 20260905060359 | 76 | 183 | 2.0 | 2.0 | 0.00 | 0.00 | 0.00 | 96 | 1012.5 |
| 20260905055637 | 76 | 346 | 1.0 | 2.0 | 0.00 | 0.00 | 0.00 | 95 | 1012.5 |
| 20260905055135 | 77 | 205 | 0.0 | 2.0 | 0.00 | 0.00 | 0.00 | 95 | 1012.5 |
| 20260905054636 | 77 | 6 | 0.0 | 1.0 | 0.00 | 0.00 | 0.00 | 95 | 1012.5 |
| 20260905054136 | 77 | 32 | 0.0 | 1.0 | 0.00 | 0.00 | 0.00 | 95 | 1012.5 |
| 20260905053635 | 77 | 0 | 0.0 | 1.0 | 0.00 | 0.00 | 0.00 | 95 | 1012.5 |
| 20260905053401 | 77 | 29 | 0.0 | 1.0 | 0.00 | 0.00 | 0.00 | 94 | 1012.5 |
| 20260905052635 | 77 | 343 | 0.0 | 1.0 | 0.00 | 0.00 | 0.00 | 94 | 1012.5 |
| 20260905052136 | 78 | 322 | 0.0 | 1.0 | 0.00 | 0.00 | 0.00 | 93 | 1012.5 |
| 20260905051900 | 78 | 250 | 0.0 | 1.0 | 0.00 | 0.00 | 0.00 | 93 | 1012.2 |
| 20260905051133 | 78 | 297 | 0.0 | 0.0 | 0.00 | 0.00 | 0.00 | 93 | 1012.2 |
| 20260905050631 | 78 | 309 | 0.0 | 1.0 | 0.00 | 0.00 | 0.00 | 93 | 1012.5 |
| 20260905050131 | 78 | 305 | 0.0 | 1.0 | 0.00 | 0.00 | 0.00 | 92 | 1012.5 |
| 20260905045632 | 79 | 301 | 0.0 | 1.0 | 0.00 | 0.00 | 0.00 | 91 | 1012.5 |
| 20260905045132 | 79 | 310 | 0.0 | 1.0 | 0.00 | 0.00 | 0.00 | 91 | 1012.2 |
| 20260905044629 | 79 | 260 | 0.0 | 2.0 | 0.00 | 0.00 | 0.00 | 91 | 1012.5 |
| 20260905044351 | 79 | 287 | 0.0 | 2.0 | 0.00 | 0.00 | 0.00 | 90 | 1012.5 |
| 20260905043628 | 79 | 242 | 0.0 | 1.0 | 0.00 | 0.00 | 0.00 | 90 | 1012.5 |
| 20260905043128 | 80 | 336 | 0.0 | 2.0 | 0.00 | 0.00 | 0.00 | 90 | 1012.5 |
| 20260905042627 | 80 | 293 | 0.0 | 2.0 | 0.00 | 0.00 | 0.00 | 89 | 1012.2 |
| 20260905042127 | 80 | 228 | 1.0 | 2.0 | 0.00 | 0.00 | 0.00 | 89 | 1012.2 |
| 20260905041630 | 80 | 255 | 1.0 | 3.0 | 0.00 | 0.00 | 0.00 | 89 | 1012.2 |
| 20260905041127 | 80 | 269 | 1.0 | 3.0 | 0.00 | 0.00 | 0.00 | 88 | 1012.5 |
| 20260905040625 | 80 | 251 | 0.0 | 4.0 | 0.00 | 0.00 | 0.00 | 88 | 1012.2 |
| 20260905040127 | 80 | 240 | 2.0 | 4.0 | 0.00 | 0.00 | 0.00 | 88 | 1012.2 |
| 20260905035625 | 80 | 237 | 2.0 | 4.0 | 0.00 | 0.00 | 0.00 | 89 | 1012.2 |
| 20260905035126 | 80 | 232 | 1.0 | 3.0 | 0.00 | 0.00 | 0.00 | 89 | 1012.5 |
| 20260905034625 | 80 | 229 | 2.0 | 3.0 | 0.00 | 0.00 | 0.00 | 89 | 1012.5 |
| 20260905034124 | 80 | 233 | 2.0 | 3.0 | 0.00 | 0.00 | 0.00 | 89 | 1012.5 |
| 20260905033624 | 80 | 238 | 1.0 | 3.0 | 0.00 | 0.00 | 0.00 | 90 | 1012.5 |
| 20260905033121 | 80 | 248 | 1.0 | 3.0 | 0.00 | 0.00 | 0.00 | 90 | 1012.5 |
| 20260905032621 | 80 | 238 | 2.0 | 2.0 | 0.00 | 0.00 | 0.00 | 91 | 1012.5 |
| 20260905032123 | 79 | 250 | 1.0 | 2.0 | 0.00 | 0.00 | 0.00 | 91 | 1012.9 |
| 20260905031622 | 79 | 230 | 0.0 | 2.0 | 0.00 | 0.00 | 0.00 | 92 | 1012.5 |
| 20260905031121 | 79 | 226 | 0.0 | 2.0 | 0.00 | 0.00 | 0.00 | 92 | 1012.9 |
| 20260905030621 | 79 | 209 | 0.0 | 2.0 | 0.00 | 0.00 | 0.00 | 93 | 1012.9 |
| 20260905030121 | 79 | 199 | 0.0 | 2.0 | 0.00 | 0.00 | 0.00 | 93 | 1013.3 |
| 20260905025619 | 79 | 224 | 1.0 | 2.0 | 0.00 | 0.00 | 0.00 | 93 | 1012.9 |
| 20260905025120 | 79 | 212 | 0.0 | 2.0 | 0.00 | 0.00 | 0.00 | 93 | 1012.9 |
| 20260905024842 | 79 | 208 | 1.0 | 2.0 | 0.00 | 0.00 | 0.00 | 93 | 1012.9 |
| 20260905024118 | 79 | 233 | 0.0 | 2.0 | 0.00 | 0.00 | 0.00 | 94 | 1012.9 |
| 20260905023618 | 79 | 317 | 1.0 | 2.0 | 0.00 | 0.00 | 0.00 | 94 | 1013.3 |
| 20260905023344 | 79 | 336 | 0.0 | 1.0 | 0.00 | 0.00 | 0.00 | 93 | 1013.3 |
| 20260905022615 | 79 | 336 | 0.0 | 1.0 | 0.00 | 0.00 | 0.00 | 93 | 1012.9 |
| 20260905022115 | 79 | 359 | 1.0 | 1.0 | 0.00 | 0.00 | 0.00 | 93 | 1013.3 |
| 20260905021614 | 79 | 297 | 0.0 | 1.0 | 0.00 | 0.00 | 0.00 | 93 | 1012.5 |
| 20260905021341 | 79 | 224 | 0.0 | 1.0 | 0.00 | 0.00 | 0.00 | 93 | 1012.9 |
| 20260905020616 | 79 | 242 | 0.0 | 1.0 | 0.00 | 0.00 | 0.00 | 92 | 1012.9 |
| 20260905020114 | 79 | 284 | 0.0 | 1.0 | 0.00 | 0.00 | 0.00 | 92 | 1012.9 |
| 20260905015612 | 80 | 324 | 0.0 | 1.0 | 0.00 | 0.00 | 0.00 | 92 | 1012.5 |
| 20260905015113 | 80 | 333 | 0.0 | 1.0 | 0.00 | 0.00 | 0.00 | 92 | 1012.5 |
| 20260905014612 | 80 | 333 | 0.0 | 0.0 | 0.00 | 0.00 | 0.00 | 91 | 1012.5 |
| 20260905014110 | 80 | 309 | 0.0 | 0.0 | 0.00 | 0.00 | 0.00 | 91 | 1012.5 |
| 20260905013611 | 80 | 309 | 0.0 | 1.0 | 0.00 | 0.00 | 0.00 | 91 | 1012.5 |
| 20260905013110 | 80 | 322 | 0.0 | 1.0 | 0.00 | 0.00 | 0.00 | 90 | 1012.2 |
| 20260905012609 | 80 | 326 | 0.0 | 1.0 | 0.00 | 0.00 | 0.00 | 90 | 1012.2 |
| 20260905012110 | 81 | 304 | 0.0 | 1.0 | 0.00 | 0.00 | 0.00 | 90 | 1011.9 |
| 20260905011623 | 81 | 242 | 0.0 | 0.0 | 0.00 | 0.00 | 0.00 | 89 | 1012.2 |
| 20260905011109 | 81 | 217 | 0.0 | 1.0 | 0.00 | 0.00 | 0.00 | 89 | 1012.2 |
| 20260905010837 | 81 | 246 | 0.0 | 1.0 | 0.00 | 0.00 | 0.00 | 88 | 1011.9 |
| 20260905010119 | 81 | 230 | 0.0 | 1.0 | 0.00 | 0.00 | 0.00 | 88 | 1011.9 |
| 20260905005606 | 82 | 297 | 0.0 | 0.0 | 0.00 | 0.00 | 0.00 | 88 | 1011.5 |
| 20260905005106 | 82 | 242 | 0.0 | 2.0 | 0.00 | 0.00 | 0.00 | 87 | 1011.9 |
| 20260905004610 | 82 | 217 | 1.0 | 2.0 | 0.00 | 0.00 | 0.00 | 87 | 1011.9 |
| 20260905004105 | 82 | 257 | 0.0 | 2.0 | 0.00 | 0.00 | 0.00 | 86 | 1011.5 |
| 20260905003607 | 83 | 257 | 0.0 | 2.0 | 0.00 | 0.00 | 0.00 | 86 | 1011.9 |
| 20260905003104 | 83 | 325 | 1.0 | 1.0 | 0.00 | 0.00 | 0.00 | 85 | 1011.9 |
| 20260905002829 | 83 | 329 | 0.0 | 1.0 | 0.00 | 0.00 | 0.00 | 85 | 1011.9 |
| 20260905002103 | 83 | 284 | 0.0 | 2.0 | 0.00 | 0.00 | 0.00 | 84 | 1011.9 |
| 20260905001601 | 83 | 285 | 0.0 | 2.0 | 0.00 | 0.00 | 0.00 | 84 | 1011.5 |
| 20260905001103 | 84 | 314 | 1.0 | 1.0 | 0.00 | 0.00 | 0.00 | 83 | 1011.9 |
| 20260905000601 | 84 | 321 | 0.0 | 2.0 | 0.00 | 0.00 | 0.00 | 82 | 1011.9 |
| 20260905000114 | 84 | 307 | 1.0 | 2.0 | 0.00 | 0.00 | 0.00 | 82 | 1011.9 |
| 20260904235601 | 85 | 274 | 1.0 | 2.0 | 0.00 | 0.00 | 0.00 | 82 | 1011.5 |
| 20260904235101 | 85 | 227 | 1.0 | 2.0 | 0.00 | 0.00 | 0.00 | 81 | 1011.5 |
| 20260904234820 | 85 | 304 | 1.0 | 2.0 | 0.00 | 0.00 | 0.00 | 80 | 1011.5 |
| 20260904234100 | 85 | 322 | 0.0 | 2.0 | 0.00 | 0.00 | 0.00 | 79 | 1011.5 |
| 20260904233559 | 86 | 233 | 1.0 | 2.0 | 0.00 | 0.00 | 0.00 | 79 | 1011.5 |
| 20260904233057 | 86 | 245 | 1.0 | 2.0 | 0.00 | 0.00 | 0.00 | 78 | 1011.9 |
| 20260904232558 | 86 | 238 | 2.0 | 2.0 | 0.00 | 0.00 | 0.00 | 77 | 1011.9 |
| 20260904232058 | 87 | 264 | 1.0 | 2.0 | 0.00 | 0.00 | 0.00 | 77 | 1011.9 |
| 20260904231557 | 87 | 272 | 2.0 | 2.0 | 0.00 | 0.00 | 0.00 | 76 | 1011.5 |
| 20260904231056 | 87 | 289 | 1.0 | 2.0 | 0.00 | 0.00 | 0.00 | 77 | 1011.9 |
| 20260904230555 | 87 | 266 | 1.0 | 4.0 | 0.00 | 0.00 | 0.00 | 76 | 1011.9 |
| 20260904230108 | 87 | 282 | 2.0 | 4.0 | 0.00 | 0.00 | 0.00 | 75 | 1011.9 |
| 20260904225553 | 87 | 269 | 0.0 | 3.0 | 0.00 | 0.00 | 0.00 | 75 | 1011.9 |
| 20260904225314 | 87 | 297 | 2.0 | 6.0 | 0.00 | 0.00 | 0.00 | 74 | 1012.2 |
| 20260904224556 | 87 | 267 | 2.0 | 6.0 | 0.00 | 0.00 | 0.00 | 74 | 1011.9 |
| 20260904224053 | 88 | 272 | 3.0 | 6.0 | 0.00 | 0.00 | 0.00 | 74 | 1011.9 |
| 20260904223552 | 88 | 236 | 2.0 | 6.0 | 0.00 | 0.00 | 0.00 | 74 | 1012.2 |
| 20260904223053 | 88 | 269 | 1.0 | 3.0 | 0.00 | 0.00 | 0.00 | 74 | 1012.2 |
| 20260904222810 | 88 | 273 | 2.0 | 4.0 | 0.00 | 0.00 | 0.00 | 73 | 1012.2 |
| 20260904221814 | 88 | 229 | 4.0 | 5.0 | 0.00 | 0.00 | 0.00 | 72 | 1012.2 |
| 20260904221049 | 88 | 244 | 3.0 | 5.0 | 0.00 | 0.00 | 0.00 | 72 | 1012.2 |
| 20260904220549 | 88 | 240 | 2.0 | 4.0 | 0.00 | 0.00 | 0.00 | 72 | 1011.9 |
| 20260904215547 | 88 | 234 | 2.0 | 5.0 | 0.00 | 0.00 | 0.00 | 71 | 1011.9 |
| 20260904215052 | 88 | 256 | 2.0 | 4.0 | 0.00 | 0.00 | 0.00 | 72 | 1012.2 |
| 20260904214550 | 88 | 249 | 3.0 | 4.0 | 0.00 | 0.00 | 0.00 | 71 | 1012.2 |